Das Wetter in  D-61279 Heinzenberg / Taunus





Wetter Minimum- & Maximum-Werte im Oktober 2017

Standort: Heinzenberg / Taunus - Höhe 297 m         8 24' 1" Ost 50 21' 51" Nord
(   3-stündige Aktualisierung    letzte Aktualisierung um 19:04 am 31.10.2017  )


Messgrösse

Minimum

Maximum

Durchschnitt

Temperatur West /
Luftfeuchte West
Anklicken für Monats-Diagramm

1,9 C

00:55
31.10.2017

50 %

16:50
01.10.2017

25,2 C

15:36
17.10.2017

93 %

09:58
09.10.2017

Temp

11,2 C

Feuchte

82 %

Temperatur Ost /
Luftfeuchte Ost
Anklicken für Monats-Diagramm

2,1 C

01:35
31.10.2017

--

--
--

25,2 C

15:36
17.10.2017

--

--
--

11,4 C

--

Luftdruck Anklicken für Monats-Diagramm

1003,2 hPa

05:03
29.10.2017

1029,6 hPa

23:27
27.10.2017

1019,2 hPa

Taupunkt

-0,3 C

00:50
31.10.2017

17,3 C

15:31
17.10.2017

8,2 C

Windchill
( gefühlte Temperatur )

-4,9 C

13:48
29.10.2017

25,2 C

15:36
17.10.2017

8,2 C

Windgeschwindigkeit /
Windrichtung
Anklicken für Monats-Diagramm

---

59,5 km/h / W

13:39
05.10.2017

11,0 km/h
W-SW

Helligkeit /
Sonnenschein
Anklicken für Monats-Diagramm
Anklicken für Monats-Diagramm

Sonnenschein:

97:30 Stunden

Max: 9:20 Std am
15.10.2017

94 klux

13:42
08.10.2017

19,8 klux

Solarstrahlung Anklicken für Monats-Diagramm

---

645 W/m

13:42
08.10.2017

148 W/m

Regenmenge
    Oktober 2017
Anklicken für Monats-Diagramm

Insgesamt 34,8 l/m

in 58:02 Stunden
an 19 Tagen

12,6 l/m

13:07
03.10.2017

Gesamtmenge

34,8 l/m

Regen-Tage
    Oktober 2017
Anklicken für Monats-Diagramm

>   0 mm/Tag

>   2 mm/Tag

>   5 mm/Tag

> 10 mm/Tag

> 20 mm/Tag

19 Tage     
5 Tage     
3 Tage     
  1 Tag     
0 Tage     

Eisige Tage Oktober 2017 / 2016

Tmin ≤ -10C     

0 Tage

/

0 Tage

Eistage Oktober 2017 / 2016

Tmax <     0C     

0 Tage

/

0 Tage

Frosttage Oktober 2017 / 2016

Tmin ≤     0C     

0 Tage

/

0 Tage

Kalte Tage Oktober 2017 / 2016

Tmax <   10C     

  1 Tag

/

5 Tage

Warme Tage Oktober 2017 / 2016

Tmax ≥   20C     

6 Tage

/

  1 Tag

Sommertage Oktober 2017 / 2016

Tmax ≥   25C     

  1 Tag

/

0 Tage

Heisse Tage Oktober 2017 / 2016

Tmax ≥   30C     

0 Tage

/

0 Tage


Monatsdiagramm Oktober 2017

Die Kurven zeigen den Durchschnittswert des jeweiligen Tages an


Wetter-Monatsübersicht Oktober 2017
Datum
  Temperatur
   Luftdruck
   Wind
  Regen
   Luftfeuchte
   Helligkeit

Sonnen-
schein


Temp.

Min.
Temp.

Max.
Temp.


Luftdruck

Min.
Luftdruck

Max.
Luftdruck

-Geschw.
Haupt-Richtg.

Max.
Wind

Menge /
Dauer


Feuchte

Min.
Feuchte

Max.
Feuchte


Helligkeit

Max.
Helligkeit

1.
Oktober
12,3 C8,7 C
04:20
19,4 C
15:15
1020,5 hPa1018,9 hPa
23:56
1022,2 hPa
08:00
4,2 km/h
W-SW
22,6 km/h
13:30  
---
35 Minuten
78 %50 %
16:50
91 %
00:00
38,0 klux78,7 klux
12:50
7:45 Std 
2.
Oktober
13,7 C10,6 C
00:01
17,5 C
16:36
1014,9 hPa1012,0 hPa
17:51
1018,9 hPa
00:01
16,1 km/h
W-SW
35,3 km/h
13:26  
2,1 l/m
5:05 Stunden
80 %70 %
02:21
89 %
15:41
15,8 klux78,6 klux
15:41
1:00 Std 
3.
Oktober
11,3 C9,0 C
23:58
14,8 C
16:12
1017,7 hPa1012,7 hPa
02:52
1024,2 hPa
23:58
12,7 km/h
W
35,1 km/h
13:12  
12,6 l/m
8:10 Stunden
86 %72 %
17:52
92 %
05:12
24,8 klux91,1 klux
11:52
4:15 Std 
4.
Oktober
10,4 C7,1 C
04:43
13,9 C
14:48
1022,0 hPa1018,7 hPa
23:09
1025,4 hPa
02:08
14,9 km/h
W
40,2 km/h
14:28  
---
79 %67 %
14:53
89 %
07:53
24,3 klux75,0 klux
12:43
2:50 Std 
5.
Oktober
11,5 C8,4 C
22:35
13,5 C
10:44
1012,1 hPa1007,2 hPa
13:34
1018,8 hPa
00:19
25,3 km/h
W
59,5 km/h
13:39  
0,3 l/m
1:15 Stunden
77 %68 %
08:44
88 %
15:14
11,8 klux53,3 klux
16:04
1:40 Std 
6.
Oktober
8,9 C6,9 C
06:15
13,2 C
16:10
1017,9 hPa1016,0 hPa
00:35
1022,2 hPa
22:41
15,9 km/h
W
33,5 km/h
15:40  
1,2 l/m
3:50 Stunden
85 %72 %
16:15
90 %
11:35
19,0 klux69,7 klux
15:30
1:50 Std 
7.
Oktober
9,4 C8,4 C
07:46
11,5 C
13:11
1019,1 hPa1012,8 hPa
22:22
1023,2 hPa
02:01
21,1 km/h
W
42,7 km/h
13:21  
0,2 l/m
2:31 Stunden
82 %66 %
14:06
90 %
03:36
15,9 klux62,7 klux
12:51
45 Min 
8.
Oktober
10,8 C8,4 C
23:53
15,0 C
15:42
1015,1 hPa1011,7 hPa
00:12
1020,2 hPa
23:53
15,7 km/h
W
31,2 km/h
00:02  
2,7 l/m
6:30 Stunden
88 %76 %
15:47
92 %
07:07
22,0 klux94,3 klux
13:42
2:10 Std 
9.
Oktober
9,2 C5,6 C
06:13
12,6 C
15:18
1019,4 hPa1017,7 hPa
17:33
1020,5 hPa
06:13
3,3 km/h
W
19,3 km/h
14:43  
0,3 l/m
1:35 Stunden
89 %82 %
14:53
93 %
09:58
12,8 klux33,1 klux
11:28
--- 
10.
Oktober
12,2 C10,0 C
03:34
14,9 C
16:29
1016,6 hPa1015,6 hPa
10:19
1017,8 hPa
00:34
13,3 km/h
W-SW
25,4 km/h
16:49  
---
55 Minuten
86 %80 %
16:34
89 %
08:29
11,3 klux40,1 klux
16:19
15 Min 
11.
Oktober
13,0 C11,6 C
08:30
14,1 C
13:30
1017,3 hPa1016,4 hPa
17:45
1018,5 hPa
11:55
12,7 km/h
W-SW
27,5 km/h
04:25  
---
81 %76 %
14:10
86 %
00:25
10,4 klux28,4 klux
09:05
20 Min 
12.
Oktober
13,8 C8,5 C
23:57
17,7 C
16:36
1019,8 hPa1015,3 hPa
05:51
1025,3 hPa
23:57
16,1 km/h
W
36,0 km/h
11:36  
---
74 %57 %
14:26
85 %
02:11
30,3 klux72,2 klux
12:01
6:50 Std 
13.
Oktober
13,2 C8,4 C
00:07
17,6 C
13:27
1025,4 hPa1024,1 hPa
04:02
1026,9 hPa
23:13
6,4 km/h
W-SW
26,8 km/h
13:17  
---
20 Minuten
85 %77 %
13:27
89 %
04:52
17,0 klux65,7 klux
13:22
1:25 Std 
14.
Oktober
15,4 C10,2 C
08:33
24,0 C
16:08
1026,6 hPa1024,5 hPa
16:18
1028,2 hPa
08:38
2,2 km/h
W-SW
13,9 km/h
15:33  
---
81 %59 %
16:28
92 %
09:58
35,7 klux68,1 klux
13:43
8:45 Std 
15.
Oktober
13,3 C6,9 C
08:24
24,8 C
15:29
1024,9 hPa1021,4 hPa
17:14
1027,2 hPa
01:49
1,6 km/h
W-SW
18,8 km/h
15:44  
---
79 %50 %
16:24
91 %
10:34
35,4 klux59,7 klux
13:19
9:20 Std 
16.
Oktober
13,1 C7,5 C
08:15
22,9 C
16:20
1023,7 hPa1021,6 hPa
17:15
1025,3 hPa
10:10
0,0 km/h
N
0,0 km/h
00:00  
---
83 %67 %
17:10
91 %
11:20
26,5 klux65,2 klux
11:30
5:35 Std 
17.
Oktober
13,6 C7,5 C
07:21
25,2 C
15:36
1020,9 hPa1017,2 hPa
16:31
1023,4 hPa
07:21
0,2 km/h
O-SO
12,0 km/h
16:41  
---
81 %60 %
16:31
91 %
09:46
31,3 klux55,5 klux
13:11
9:15 Std 
18.
Oktober
11,6 C5,5 C
09:07
22,4 C
16:22
1014,9 hPa1012,3 hPa
16:22
1018,0 hPa
01:12
0,1 km/h
SO
5,2 km/h
00:37  
---
82 %62 %
16:12
91 %
10:32
30,6 klux63,0 klux
14:07
7:20 Std 
19.
Oktober
12,1 C5,4 C
08:48
22,4 C
15:18
1012,5 hPa1010,2 hPa
15:18
1014,3 hPa
09:23
2,7 km/h
W-SW
27,4 km/h
13:48  
---
78 %55 %
16:18
90 %
09:48
30,4 klux64,8 klux
14:08
6:50 Std 
20.
Oktober
12,6 C10,2 C
23:25
16,5 C
12:19
1012,1 hPa1010,0 hPa
08:44
1015,8 hPa
23:10
12,0 km/h
W-SW
35,9 km/h
13:34  
1,2 l/m
2:55 Stunden
77 %62 %
15:44
86 %
03:29
17,9 klux67,5 klux
11:59
2:30 Std 
21.
Oktober
11,8 C7,8 C
02:05
15,4 C
16:00
1013,6 hPa1012,1 hPa
16:00
1016,1 hPa
01:55
10,0 km/h
W-SW
29,8 km/h
11:30  
1,7 l/m
2:40 Stunden
81 %73 %
00:00
87 %
20:10
15,0 klux86,1 klux
12:20
1:40 Std 
22.
Oktober
8,9 C7,2 C
23:42
10,8 C
00:01
1013,6 hPa1012,7 hPa
04:06
1016,2 hPa
23:42
20,7 km/h
W-SW
36,9 km/h
11:41  
6,1 l/m
5:55 Stunden
84 %74 %
08:41
89 %
15:31
8,0 klux14,9 klux
15:36
--- 
23.
Oktober
8,9 C6,9 C
01:22
10,5 C
13:27
1018,7 hPa1016,2 hPa
00:22
1022,1 hPa
23:58
15,3 km/h
W
28,9 km/h
13:32  
---
84 %79 %
17:02
87 %
00:02
7,6 klux38,9 klux
13:22
10 Min 
24.
Oktober
11,6 C8,2 C
01:53
15,3 C
15:33
1022,7 hPa1021,4 hPa
15:33
1024,1 hPa
09:18
8,3 km/h
W-SW
27,9 km/h
14:08  
---
15 Minuten
86 %79 %
15:38
90 %
09:03
13,0 klux46,0 klux
15:18
40 Min 
25.
Oktober
14,7 C12,8 C
19:59
19,3 C
14:49
1021,7 hPa1019,9 hPa
14:49
1024,8 hPa
23:55
11,4 km/h
W-SW
31,6 km/h
13:29  
---
81 %64 %
14:59
91 %
01:34
22,3 klux62,2 klux
12:39
4:05 Std 
26.
Oktober
12,1 C8,8 C
08:00
14,8 C
14:05
1024,0 hPa1021,6 hPa
20:40
1025,3 hPa
08:00
2,5 km/h
W-SW
15,4 km/h
14:05  
---
84 %78 %
14:35
90 %
08:30
10,1 klux27,9 klux
14:20
--- 
27.
Oktober
10,3 C7,5 C
23:27
14,7 C
15:41
1024,4 hPa1019,9 hPa
04:11
1029,6 hPa
23:27
14,0 km/h
NW
34,8 km/h
11:51  
0,5 l/m
3:00 Stunden
81 %63 %
15:41
89 %
03:16
18,0 klux59,0 klux
12:21
3:05 Std 
28.
Oktober
8,4 C6,8 C
03:42
10,5 C
16:37
1021,0 hPa1010,7 hPa
23:58
1028,6 hPa
00:02
22,1 km/h
W
44,8 km/h
22:02  
0,2 l/m
2:31 Stunden
81 %66 %
16:32
91 %
22:48
8,8 klux32,0 klux
16:22
1:20 Std 
29.
Oktober
8,7 C5,1 C
22:29
11,6 C
05:03
1011,4 hPa1003,2 hPa
05:03
1019,6 hPa
22:29
28,6 km/h
NW
52,9 km/h
05:23  
5,8 l/m
8:45 Stunden
82 %63 %
12:43
93 %
02:53
18,1 klux61,6 klux
11:43
2:55 Std 
30.
Oktober
5,5 C2,8 C
23:50
8,8 C
15:09
1024,6 hPa1019,6 hPa
00:04
1028,2 hPa
23:50
8,3 km/h
W-NW
22,5 km/h
14:04  
---
10 Minuten
82 %70 %
15:19
88 %
05:29
13,3 klux38,3 klux
15:04
30 Min 
31.
Oktober
6,0 C1,9 C
00:55
11,2 C
13:55
1026,7 hPa1024,4 hPa
23:06
1028,3 hPa
00:55
4,0 km/h
W-SW
18,3 km/h
13:45  
---
1:05 Stunden
80 %66 %
14:00
89 %
06:05
19,6 klux69,8 klux
12:05
2:25 Std 



Oktober
2017

Temperatur

  

Luftdruck

  

Wind

  

Regen

  

Luftfeuchte

  

Helligkeit

Sonnen-
schein

Min

Max

Min

Max

Max

Max

Min

Max

Max

Max

11,2 C

1,9 C

00:55 Uhr
31.10.2017

25,2 C

15:36 Uhr
17.10.2017

1019,2 hPa

1003,2 hPa

05:03 Uhr
29.10.2017

1029,6 hPa

23:27 Uhr
27.10.2017

11,0 km/h

W-SW

59,5 km/h

13:39 Uhr
05.10.2017

12,6 l/m

8:10 Stunden
03.10.2017

82 %

50 %

16:50 Uhr
01.10.2017

93 %

09:58 Uhr
09.10.2017

19,8 klux

94,3 klux

13:42 Uhr
08.10.2017

9:20 Std

am
15.10.2017

Gesamt

Gesamt

34,8 l/m

19 Tage
58:02 h

97:30 Std


Wetter-Diagramme Oktober 2017     Heinzenberg / Taunus   
TemperaturLuftfeuchte
SolarstrahlungLuftdruck
HelligkeitSonnenschein
RegenmengeRegendauer
Wind-GeschwindigkeitWind-Richtung